Wind_Speed
64 62 61 61 62 62 62 62 63 63 61 56 53 52 52 50 47 46 45 47 48 48 48 47 46 47 46 46 47 48 48 48 48 50 50 51 52 55 57 59 58 56 54 52 50 50 49 49 48 48 48 47 44 42 41 39 37 37 36 31 27 27 27 28 30 33 35 36 38 39 35 32 33 36 38 38 37 37 37 37 36 35 33 33 34 35
62 60 61 62 63 62 61 62 62 60 56 53 51 52 53 51 47 45 45 46 45 45 48 47 46 47 48 50 51 51 51 51 52 52 53 54 56 58 58 56 55 53 52 51 50 48 48 47 46 46 46 44 42 41 41 38 36 37 35 29 28 29 30 31 30 31 35 38 41 41 38 36 34 33 35 36 37 37 37 37 35 34 34 34 36 37
60 60 62 62 62 62 61 61 60 57 53 52 52 53 54 52 49 47 46 47 46 43 44 45 45 48 52 54 54 54 53 53 54 54 55 57 58 57 55 53 52 52 50 49 48 47 47 47 45 44 44 42 40 40 41 38 36 37 36 32 31 31 32 35 35 33 35 38 40 40 39 39 38 34 34 36 36 34 33 33 32 32 33 33 35 37
59 62 63 62 61 60 59 60 58 54 51 52 53 54 56 52 49 48 45 46 49 45 42 44 47 50 54 57 57 57 55 54 55 55 56 56 56 55 53 52 51 51 51 49 47 46 46 46 45 44 44 42 40 41 42 40 38 39 39 36 34 33 31 34 37 34 34 36 36 38 38 39 39 38 36 36 35 32 30 31 29 29 31 33 36 38
61 62 61 60 60 58 57 57 55 52 50 50 52 55 56 52 49 48 43 42 47 49 47 48 49 51 54 58 59 59 57 56 55 54 54 53 54 55 55 52 51 52 52 50 48 48 47 47 46 46 46 45 42 43 45 43 42 42 43 40 37 37 32 31 36 34 32 33 31 33 38 39 39 39 39 37 35 33 31 31 30 30 32 34 36 38
61 60 59 59 58 57 56 54 52 50 49 49 50 53 55 54 52 49 43 38 41 48 50 49 49 50 55 60 60 60 60 59 55 53 53 54 56 57 55 52 51 52 53 51 51 51 49 48 49 49 49 48 46 46 47 46 45 44 46 45 41 40 35 31 35 33 30 31 29 28 34 40 40 37 38 39 37 35 33 32 33 33 34 35 36 38
61 59 59 58 56 55 53 52 50 47 46 45 45 49 51 52 50 47 44 40 38 41 46 49 49 50 56 60 61 60 60 57 54 53 55 56 57 57 56 53 52 53 53 53 53 54 53 50 51 52 51 50 48 47 48 47 47 45 45 47 44 42 37 32 33 33 30 31 30 28 30 38 42 39 38 39 39 38 35 33 33 35 38 39 40 40
59 57 57 55 53 51 49 50 48 45 43 41 43 49 50 47 47 46 43 41 41 43 47 50 50 52 56 59 59 58 57 56 56 57 58 58 57 56 56 54 53 53 54 56 57 56 55 52 51 52 51 51 49 47 47 46 45 44 44 45 44 43 39 33 31 32 31 31 32 31 30 34 40 42 42 42 41 40 39 36 34 35 37 38 40 41
58 56 55 53 51 48 48 49 47 45 43 42 46 51 49 47 49 47 44 44 47 49 49 50 51 53 55 56 56 56 55 56 58 60 60 59 57 56 55 55 54 53 54 57 58 57 55 53 50 50 50 49 47 44 43 41 40 39 40 41 42 42 40 34 29 29 29 28 29 28 27 29 32 34 40 45 45 43 41 39 38 37 36 35 37 39
56 54 53 51 48 46 47 47 46 45 46 47 50 48 46 48 49 48 47 49 51 51 50 51 52 52 53 53 53 54 54 55 57 58 58 57 56 55 56 56 55 54 54 54 55 55 54 52 49 48 48 46 43 39 36 34 33 33 35 38 39 39 37 31 25 23 24 24 24 23 22 24 25 26 34 42 46 46 45 44 42 42 42 38 37 39
54 52 50 47 45 44 45 44 44 45 48 51 51 47 44 45 47 48 48 49 49 49 50 52 53 52 51 50 51 52 53 54 55 56 56 56 56 56 56 56 55 52 50 49 51 53 51 49 47 45 45 43 39 36 34 31 30 28 29 32 34 33 31 28 23 21 24 26 25 24 22 23 24 26 31 37 42 46 47 47 47 46 48 46 43 44
51 48 46 44 43 43 42 43 44 45 48 51 51 49 48 47 48 48 48 49 50 50 52 53 52 51 49 48 49 50 51 52 52 54 56 56 56 56 54 53 52 49 47 46 49 50 47 45 43 40 39 38 36 34 33 31 28 26 28 30 29 29 29 31 27 23 28 32 31 29 26 25 27 28 30 34 37 40 44 47 50 51 52 52 51 51
49 47 45 44 42 42 42 43 45 46 47 48 49 49 49 49 49 48 48 50 50 50 52 52 51 49 47 46 46 48 50 50 51 53 55 56 55 53 50 47 47 46 43 43 46 46 42 40 38 36 35 35 33 30 28 27 25 25 33 36 31 31 35 34 28 25 32 38 35 32 28 28 32 33 34 36 36 36 40 45 49 53 54 55 56 55
49 48 46 44 43 42 43 44 45 45 46 47 48 48 47 47 46 45 46 48 47 48 49 49 47 45 44 42 41 44 48 48 49 52 53 54 52 48 45 43 41 40 39 40 43 42 39 37 35 34 34 34 32 28 25 24 25 27 35 38 33 32 35 32 28 30 37 39 35 31 29 31 35 35 36 38 36 34 36 41 46 52 55 56 58 59
48 46 44 43 42 42 44 46 47 48 47 48 48 47 45 43 42 42 44 45 45 45 45 45 44 42 41 38 36 42 47 47 48 50 50 49 48 45 43 40 37 36 36 38 39 38 36 35 34 34 34 34 32 29 27 26 28 31 35 37 33 29 29 29 31 36 38 39 37 33 31 33 36 36 35 36 36 33 32 35 40 46 52 56 58 60
47 45 43 42 41 42 46 48 48 47 45 46 47 46 44 42 41 42 44 44 44 43 43 43 43 41 40 38 38 43 46 46 45 46 47 47 46 44 40 37 34 33 35 36 37 35 34 34 35 35 35 33 32 32 30 29 30 34 36 35 31 27 27 29 33 40 41 41 41 37 33 34 35 35 34 35 38 37 35 34 36 40 45 51 55 58
47 46 44 43 42 42 45 46 45 43 42 43 44 44 44 44 44 44 44 44 43 42 41 42 42 40 38 37 39 42 43 43 42 43 44 45 44 43 39 34 31 31 33 36 36 34 33 33 36 37 36 34 34 34 33 32 32 34 36 37 34 30 29 32 36 43 45 44 43 41 38 36 35 36 36 36 37 38 40 40 39 40 42 45 48 52
48 47 45 44 42 42 43 44 43 42 42 42 44 45 45 44 44 43 43 42 41 40 40 40 40 39 37 37 39 41 40 40 39 40 42 42 42 41 36 31 31 31 33 35 35 33 32 34 37 38 37 35 36 38 38 37 34 32 35 39 40 38 36 37 39 42 43 43 44 43 42 40 38 39 39 39 38 36 37 38 40 42 43 44 45 46
48 47 44 43 42 42 43 44 42 42 42 42 43 44 43 41 40 40 40 40 39 39 39 39 39 38 37 37 38 39 39 38 38 39 40 41 40 37 32 29 30 31 32 35 36 35 34 35 37 38 37 36 37 38 38 38 36 34 36 38 41 42 40 38 40 42 41 41 42 41 41 41 40 41 41 40 40 38 35 34 36 38 39 42 44 45
48 46 43 42 42 41 42 42 41 41 42 41 42 41 39 38 38 38 39 39 39 39 39 39 39 38 37 37 38 38 38 38 38 39 39 39 38 34 30 29 31 32 33 36 37 37 36 36 36 37 37 38 37 36 37 38 37 37 39 40 42 43 41 40 41 42 41 40 39 39 39 39 40 41 41 38 37 37 36 33 30 33 35 36 38 42
47 44 42 42 42 41 41 42 42 42 42 41 41 40 39 39 38 39 40 40 40 39 39 39 38 37 37 37 37 38 39 40 40 40 39 38 35 32 29 29 31 33 35 37 37 38 40 39 39 38 38 39 38 35 36 39 40 41 41 41 43 44 43 44 44 43 42 40 38 38 38 38 39 42 42 39 37 37 38 35 30 32 35 35 37 40
44 43 42 42 42 42 43 45 46 45 44 44 43 42 41 40 40 40 40 40 40 39 39 38 38 37 37 38 38 40 41 42 42 41 38 36 33 31 30 30 32 34 37 37 36 39 43 43 41 40 39 40 39 36 37 40 42 43 43 42 43 43 42 44 45 44 44 43 38 35 36 36 38 41 43 41 40 40 40 39 38 38 38 38 39 41
43 43 43 43 43 44 45 46 48 48 47 45 44 41 40 40 40 40 40 40 40 39 39 39 39 38 38 39 40 41 43 43 42 41 38 34 33 32 31 31 33 36 38 38 37 40 43 44 42 40 40 41 41 38 39 41 41 42 44 43 42 41 39 41 41 41 44 45 41 35 34 34 35 38 41 41 42 42 42 42 43 45 46 45 44 44
45 45 45 45 46 47 47 47 48 50 49 46 43 42 41 40 40 40 41 41 41 41 40 40 39 39 39 40 41 42 43 43 41 40 37 34 33 34 34 34 35 37 39 39 40 41 42 43 42 39 38 41 43 42 41 41 41 42 44 44 43 40 38 39 39 39 42 44 42 38 36 35 36 38 39 39 40 42 43 44 46 47 48 48 47 47
47 46 46 48 49 49 50 50 50 50 50 47 45 44 42 41 42 42 43 44 43 42 42 42 42 42 42 43 43 43 43 42 41 39 36 34 34 36 37 36 36 38 40 41 41 41 42 43 41 39 39 42 46 46 45 44 43 43 44 46 45 42 40 40 39 38 38 39 39 40 40 39 38 39 40 40 40 41 42 44 48 49 48 46 45 44
49 48 49 50 51 52 53 54 52 51 51 50 47 46 45 44 45 45 46 46 45 44 44 44 44 45 45 44 44 44 43 43 41 38 35 33 35 37 38 38 38 39 41 41 40 41 42 44 43 40 40 44 48 50 49 47 46 45 45 47 47 43 41 41 40 39 39 36 34 37 41 42 40 40 42 43 43 44 43 44 47 50 51 49 45 42
52 51 51 52 54 56 56 56 54 53 52 52 50 49 48 48 48 48 48 48 48 47 46 45 46 46 46 46 45 44 44 43 41 37 34 33 37 39 40 39 39 39 40 41 40 39 41 44 45 44 43 44 49 53 53 50 47 46 48 50 50 47 44 41 40 40 40 38 35 33 36 39 39 39 41 41 42 45 47 46 46 47 50 49 46 44
54 53 53 54 56 58 58 57 57 55 54 53 53 52 51 51 51 51 51 51 51 49 47 46 47 47 47 46 45 45 45 43 40 37 33 33 39 41 41 41 40 38 39 39 39 39 40 43 45 46 46 47 49 53 54 52 49 48 50 52 53 52 47 41 38 37 36 37 38 36 35 35 36 37 36 35 38 43 48 50 49 48 49 49 48 47
56 55 54 56 58 60 60 59 58 57 56 55 55 55 54 54 54 53 53 53 52 50 48 48 48 48 47 46 46 47 45 42 39 36 31 32 40 43 42 42 41 39 38 39 39 39 41 43 44 46 48 49 51 53 54 53 51 51 52 53 53 53 49 43 37 35 34 36 39 39 37 36 37 37 35 33 35 39 45 49 50 50 50 50 50 48
59 57 57 57 59 60 61 60 60 59 58 58 58 58 57 57 56 55 55 55 53 51 49 48 48 48 47 47 49 47 44 41 38 34 28 30 39 44 43 42 42 41 40 39 39 40 41 43 44 46 48 51 53 54 54 54 53 52 54 55 55 55 52 45 39 34 31 31 34 36 36 35 35 34 34 33 33 36 41 45 46 48 49 49 49 48
62 61 61 60 60 61 61 61 60 60 59 60 60 60 59 58 57 56 55 54 52 50 49 48 48 48 48 50 51 47 43 40 36 31 27 28 35 43 45 43 42 42 41 41 40 40 41 44 45 46 48 51 53 55 55 55 54 54 54 56 58 58 56 50 43 38 33 29 29 31 33 34 34 34 33 33 34 36 41 45 45 46 48 49 49 48
66 64 64 63 62 62 63 63 62 61 60 60 59 59 59 57 56 55 54 53 51 49 49 50 50 49 49 50 50 47 42 38 34 30 27 28 32 39 45 45 44 42 42 42 41 40 41 44 47 47 48 50 53 55 56 56 56 56 56 57 58 58 57 53 48 44 39 34 31 31 33 35 36 36 35 35 35 37 39 42 44 46 48 49 50 49
67 66 65 64 64 64 65 65 65 65 64 62 61 60 59 57 55 54 53 52 51 51 51 51 51 51 50 50 49 46 41 37 33 30 28 28 32 36 42 46 46 44 44 43 43 43 43 45 48 49 49 51 53 55 57 57 58 59 58 58 59 59 58 55 51 48 45 42 39 37 36 37 39 40 40 39 39 40 40 39 40 43 46 49 50 51
67 66 65 64 64 65 66 67 68 69 69 67 65 64 61 59 57 55 54 54 53 53 54 53 53 52 51 49 47 44 40 36 33 31 30 29 31 35 40 45 47 46 46 45 44 45 45 46 48 49 50 51 53 55 57 58 59 60 60 59 60 61 61 59 56 52 50 49 48 46 43 43 43 44 45 44 43 43 44 44 43 44 47 49 51 54
64 64 64 64 64 65 67 68 70 71 71 70 68 67 66 65 63 61 60 59 58 57 57 56 55 53 50 47 45 42 39 36 33 32 32 31 32 33 37 41 44 45 46 45 45 46 46 47 48 50 51 52 53 55 56 58 59 60 60 60 60 61 62 62 60 57 54 54 54 53 53 52 50 49 49 48 48 48 48 48 48 49 50 50 51 54
61 62 62 63 63 65 67 68 69 70 70 70 68 67 66 66 65 64 63 62 61 60 58 57 54 52 48 45 43 41 39 37 35 33 33 34 34 35 35 37 40 42 43 44 45 45 45 46 48 50 52 53 54 55 56 57 59 60 60 61 61 62 62 62 62 60 59 59 59 58 58 58 56 54 52 51 51 50 49 48 48 49 51 51 51 51
57 57 59 60 61 62 65 66 67 68 67 67 66 64 63 62 63 62 62 61 59 58 57 53 50 48 45 43 42 41 39 38 36 34 34 35 35 37 38 38 38 39 41 41 43 44 44 45 46 49 53 54 55 56 56 57 58 60 61 61 62 63 63 63 63 63 62 62 63 61 60 59 59 58 55 53 52 52 52 50 48 48 49 50 49 49
54 55 55 57 57 59 60 62 63 63 63 63 62 60 59 58 58 58 57 55 54 53 52 48 46 46 45 44 42 41 40 39 38 37 36 35 35 37 40 40 39 39 39 40 40 41 42 43 45 47 51 54 56 56 57 58 58 59 61 61 62 63 64 65 65 65 64 64 64 64 62 60 60 60 60 58 55 55 55 53 50 49 51 51 50 50
55 55 56 56 56 57 58 59 59 59 60 59 58 55 53 52 51 52 50 48 48 50 49 47 46 46 46 45 44 42 41 41 41 40 38 35 35 37 39 41 42 41 39 39 39 40 40 42 44 46 48 52 55 57 58 58 59 59 60 61 61 62 64 66 67 67 66 66 65 65 64 62 60 59 60 60 59 59 59 58 56 53 54 56 56 56
57 58 58 58 58 58 58 58 57 57 58 57 54 51 49 48 48 47 45 44 47 50 50 49 48 48 47 47 45 44 43 42 42 42 40 37 36 38 40 41 42 42 40 40 40 41 41 42 44 46 48 50 53 56 58 59 59 60 60 62 63 62 63 65 68 69 69 68 67 67 66 65 63 61 59 59 59 60 61 62 62 60 60 61 62 62
59 59 59 59 59 59 59 58 57 57 57 56 53 51 49 48 47 46 45 46 48 50 50 50 50 49 48 48 47 46 45 44 43 43 42 40 38 40 42 43 43 43 42 41 42 43 44 44 45 47 49 50 52 54 57 59 60 61 61 62 63 64 64 64 67 70 71 71 70 69 69 68 67 65 62 60 59 60 63 65 66 66 66 66 66 65
59 59 59 59 60 60 59 58 57 57 57 55 53 52 51 49 49 48 48 48 49 49 50 51 51 51 50 50 50 49 47 46 45 45 45 44 42 43 45 46 47 47 46 44 44 44 45 46 46 47 49 51 52 53 55 57 59 60 61 62 63 65 65 65 66 69 72 73 73 71 71 71 70 69 66 63 61 61 64 66 69 70 71 70 68 67
58 58 58 58 59 59 59 58 57 57 56 55 54 53 52 51 51 51 50 49 50 51 52 53 53 53 52 52 52 51 50 48 47 47 48 47 47 46 47 49 51 51 51 49 48 46 46 47 48 49 50 50 50 52 54 56 57 59 60 62 63 64 65 66 67 68 71 73 75 74 73 72 72 72 70 68 65 64 65 67 69 71 73 74 73 72
56 56 56 57 57 58 59 59 59 58 57 56 54 54 54 53 53 52 51 52 53 54 55 55 55 55 55 54 54 53 52 52 51 50 50 50 50 48 49 51 53 54 54 53 52 51 50 50 52 51 50 49 50 51 53 54 55 57 59 61 62 63 64 65 66 67 69 72 74 76 76 75 74 74 73 72 70 68 67 68 69 70 72 74 75 76
53 54 54 54 55 56 58 60 60 60 60 58 56 55 55 55 55 54 55 55 56 56 57 57 58 57 56 56 56 55 54 54 54 53 53 52 51 50 49 50 53 55 56 56 56 56 55 54 55 54 52 50 52 53 53 54 54 55 57 59 61 62 62 63 64 65 67 70 73 75 77 78 78 77 76 75 74 72 71 70 70 71 71 72 73 75
51 51 51 52 54 57 58 58 58 58 59 60 60 60 60 60 60 60 60 60 60 59 59 59 59 59 58 58 57 57 56 56 56 55 55 54 53 52 51 51 53 55 57 58 58 58 57 55 55 55 53 52 53 55 56 56 56 55 55 56 58 60 61 62 62 63 64 67 70 73 76 78 79 80 80 79 78 77 76 74 73 73 73 72 72 73
48 48 49 50 53 56 56 55 55 55 56 57 58 60 61 62 63 64 64 63 62 62 61 61 60 60 59 59 58 58 58 57 57 57 56 55 55 54 53 53 53 54 57 59 60 60 59 56 55 54 54 53 53 53 55 57 58 58 57 56 57 58 59 60 61 62 62 64 66 70 74 76 79 80 81 82 82 81 80 79 78 77 76 76 75 75
44 45 45 47 50 53 53 51 50 52 53 54 55 57 59 60 62 63 63 63 63 62 61 61 61 60 60 60 59 59 58 58 58 57 57 56 56 56 55 55 55 55 56 58 60 61 61 60 59 58 57 56 55 54 54 55 57 59 60 59 59 60 60 60 60 61 62 63 64 67 71 74 78 80 81 83 83 84 84 84 83 81 80 80 79 79
44 44 44 44 46 48 49 48 46 47 48 50 52 54 57 59 61 63 63 63 63 63 63 62 62 61 60 60 60 60 59 59 58 58 58 57 57 57 57 56 56 55 56 56 59 61 62 62 62 61 60 59 57 55 55 55 56 58 60 61 61 61 61 61 61 61 61 62 64 66 69 72 75 78 81 83 84 85 86 86 86 86 85 84 84 83
44 44 44 44 45 46 47 47 45 44 44 44 46 49 53 56 60 62 63 64 65 64 62 62 61 61 61 61 61 60 60 60 59 59 59 59 58 58 58 57 55 55 54 55 56 59 61 62 62 62 61 60 58 56 56 55 55 56 58 60 62 63 63 62 63 64 63 63 63 65 68 70 72 75 78 81 83 85 86 87 88 88 88 88 87 87
41 42 42 42 44 45 46 46 46 45 44 43 44 46 48 52 55 58 59 61 61 58 56 56 56 56 58 59 59 59 59 59 60 60 60 60 60 58 57 56 54 53 54 54 55 57 58 60 61 61 60 60 59 58 57 56 55 55 56 58 60 62 64 64 64 65 66 66 65 65 66 68 70 72 75 78 80 83 85 87 88 89 90 90 89 89
Wind_Direction
245 247 249 251 252 254 256 258 259 261 264 265 264 262 259 258 259 259 258 254 252 250 250 254 259 261 261 258 255 255 256 257 257 257 259 262 265 270 274 277 278 278 276 274 271 269 268 267 266 265 265 265 265 264 263 261 259 255 252 250 249 250 248 247 246 240 233 233 239 241 238 238 238 239 240 240 241 243 244 240 236 236 234 235 242 242
245 247 248 249 251 254 257 259 261 263 265 264 261 257 256 256 256 257 257 254 251 250 250 253 256 259 259 256 253 252 253 255 256 257 259 262 267 272 275 276 277 277 276 274 272 270 268 267 265 265 265 265 264 262 261 258 255 251 245 239 238 241 246 249 247 242 237 235 240 242 237 231 229 233 239 242 243 244 243 241 238 237 237 238 241 242
245 246 247 249 252 255 258 261 262 263 263 261 258 255 253 254 254 254 257 253 248 250 251 252 254 256 257 257 255 254 253 254 256 258 262 266 270 273 275 276 276 275 273 272 271 271 269 268 267 265 264 263 262 260 258 256 252 247 239 230 230 240 249 251 247 243 241 241 242 243 237 228 224 226 232 238 242 244 241 238 239 239 240 240 241 242
243 244 247 251 254 258 260 262 263 263 261 259 256 253 251 251 252 253 256 252 245 245 247 248 250 254 258 260 259 258 256 256 258 262 265 269 272 274 276 277 275 273 272 270 270 269 268 268 267 265 263 261 259 257 256 253 249 244 237 228 226 237 249 250 245 242 243 244 244 241 233 226 225 227 230 234 238 242 240 235 236 239 242 243 242 241
243 246 250 253 256 259 261 262 263 261 259 256 254 252 249 248 249 251 253 252 245 243 244 246 248 253 259 261 261 262 262 261 262 264 266 268 271 274 275 274 272 271 271 271 270 268 266 265 264 263 261 258 255 253 253 251 247 242 236 231 227 232 243 247 243 242 244 246 246 240 229 223 226 229 233 236 237 238 236 234 235 236 241 243 242 241
244 248 252 254 256 259 260 261 260 258 256 254 252 250 248 245 247 250 250 249 246 243 245 249 251 254 258 261 261 262 263 263 264 264 267 270 272 273 273 271 269 269 269 269 268 266 263 262 261 259 257 256 253 251 251 249 245 242 235 232 229 229 236 242 241 243 245 246 249 245 232 226 227 230 235 239 239 235 233 233 234 235 239 243 244 243
246 249 251 254 257 259 260 260 258 255 252 252 250 247 246 245 247 248 247 247 248 247 248 251 251 252 255 258 259 261 263 265 268 270 271 273 273 273 272 270 269 268 269 267 265 264 261 259 258 258 256 255 253 251 250 248 245 242 236 232 229 226 230 236 239 245 246 244 249 253 244 235 233 234 235 239 240 237 233 232 235 237 241 245 248 249
246 248 251 254 256 258 259 258 257 254 249 248 247 243 243 244 244 245 246 249 252 251 250 250 250 250 251 253 256 260 265 269 271 273 273 272 272 271 271 270 268 268 268 267 265 264 263 260 258 259 259 258 256 252 251 249 246 244 238 233 227 223 226 231 237 244 246 246 253 257 256 247 241 239 237 238 239 236 233 232 234 237 242 246 249 252
245 248 250 253 254 256 257 256 255 253 248 247 247 244 242 241 242 245 247 249 250 250 250 250 249 249 251 255 258 262 266 269 272 273 273 273 271 271 271 271 270 269 268 267 267 266 265 264 261 261 261 260 258 255 253 251 248 244 239 233 224 219 224 230 235 243 245 250 256 256 256 251 244 243 241 239 239 237 234 231 231 233 237 243 248 249
245 248 250 252 254 255 255 254 253 251 246 245 247 248 246 243 245 248 247 246 248 249 250 251 252 254 257 262 265 267 268 270 272 273 274 274 273 274 275 275 274 272 270 269 268 266 263 261 259 256 254 254 253 251 248 247 244 241 238 231 219 216 224 229 234 245 244 247 253 249 247 245 236 238 244 244 242 241 238 232 230 231 230 232 239 243
245 247 250 251 253 254 254 254 253 251 245 244 246 249 247 245 246 247 247 248 250 251 253 254 256 259 262 266 270 271 271 270 270 271 271 273 275 276 278 279 279 276 272 269 265 262 259 256 253 250 246 244 242 237 234 232 230 228 228 224 216 217 225 227 232 249 246 245 252 247 243 242 232 231 244 249 247 243 241 236 233 233 232 228 229 234
244 245 247 249 251 252 252 252 252 250 247 245 246 248 248 248 249 251 252 254 255 256 258 259 260 263 266 269 270 270 270 270 270 271 272 274 276 278 280 281 280 276 271 266 262 258 256 254 250 246 242 238 234 228 224 221 215 208 202 201 208 218 224 225 229 244 247 247 252 250 247 244 237 234 242 250 251 247 243 240 237 237 237 233 230 231
239 240 242 245 248 249 249 250 250 249 248 247 246 247 249 251 252 255 257 258 258 259 260 262 264 266 267 268 269 271 271 270 271 273 275 277 279 281 282 281 279 275 268 261 258 254 251 249 245 240 235 231 226 221 219 215 205 196 189 185 194 211 218 220 222 230 240 244 246 250 251 246 240 238 242 250 257 256 249 243 241 241 240 238 235 234
237 238 241 245 246 246 246 247 248 246 245 246 245 246 247 250 252 255 257 257 257 258 261 264 266 267 267 268 271 273 273 272 273 275 277 279 281 282 281 281 279 272 262 255 252 250 247 243 236 230 225 222 218 210 206 204 196 189 187 185 191 206 212 212 213 223 235 241 241 245 249 245 243 243 244 251 259 261 258 251 246 244 243 242 240 239
238 241 244 247 247 246 244 243 243 243 243 245 246 246 248 251 253 254 255 255 256 258 262 264 266 266 266 266 267 269 273 276 277 278 279 282 284 283 281 279 275 266 254 248 247 245 242 237 228 221 217 214 209 199 195 197 192 183 182 189 198 204 205 204 212 225 234 239 238 239 244 245 247 248 246 249 254 257 260 259 254 250 247 246 245 244
236 240 243 244 244 243 242 243 245 246 247 247 247 248 250 251 250 251 253 255 258 260 261 262 263 263 265 265 264 266 272 277 278 279 281 284 286 284 281 275 266 257 248 243 242 239 235 230 221 213 209 207 200 192 191 193 189 181 179 188 196 199 202 205 217 227 231 234 234 234 238 241 243 246 245 244 248 251 255 259 260 258 253 249 248 247
234 237 239 240 240 240 242 246 248 248 246 246 247 247 247 247 247 249 253 256 258 259 259 260 262 263 266 268 269 270 273 275 278 281 284 285 286 284 281 270 257 246 239 236 236 232 226 219 211 205 201 199 194 188 186 184 182 180 181 185 188 191 199 209 220 228 229 232 234 232 233 236 237 239 240 241 242 246 253 258 261 262 260 256 252 250
234 237 239 241 241 239 240 243 244 244 243 243 245 245 245 246 248 250 252 253 255 256 257 260 263 267 269 271 272 273 274 276 280 283 285 286 286 283 277 264 249 237 229 227 228 225 216 207 202 199 195 192 189 185 183 179 176 178 181 186 191 194 201 209 218 227 230 231 234 233 233 237 237 233 233 236 237 241 250 256 259 260 261 259 256 255
237 240 242 244 243 240 240 242 243 244 243 243 244 245 246 247 248 248 250 251 252 254 258 262 266 269 270 270 271 273 275 280 285 287 288 288 285 279 270 256 243 232 223 221 220 217 210 202 198 195 191 189 189 188 187 182 179 181 182 187 194 197 203 209 216 226 232 232 232 233 235 239 239 233 231 234 237 241 246 251 257 259 260 260 258 257
239 242 244 244 243 241 242 244 244 244 243 243 244 245 246 246 246 247 248 251 254 257 261 264 267 269 269 269 271 275 280 286 288 290 290 289 283 274 261 248 237 229 221 217 215 211 206 200 195 193 190 190 193 194 192 187 184 185 184 186 191 195 201 210 218 225 231 231 230 230 234 238 237 232 231 234 236 237 240 247 254 254 256 260 261 261
241 245 246 245 244 242 242 244 244 243 242 242 243 244 244 245 246 248 251 255 258 261 263 264 265 267 269 272 275 280 285 288 290 292 291 289 281 267 253 242 232 225 219 216 212 208 203 197 194 194 192 193 197 199 195 190 188 189 191 193 195 196 201 210 216 221 226 227 227 229 234 237 235 231 231 233 232 228 231 240 244 244 249 257 262 264
243 247 247 246 245 242 240 240 242 242 242 242 242 243 245 247 249 253 256 259 261 261 262 264 266 269 272 276 279 282 286 288 290 292 292 287 274 258 245 238 231 223 217 214 211 205 200 197 196 198 198 199 202 201 196 192 192 195 199 202 202 201 204 209 215 221 224 222 221 226 232 235 234 232 231 234 233 230 232 238 242 245 250 256 260 262
241 243 244 244 244 243 242 242 244 245 246 246 247 248 250 251 254 256 258 258 258 259 262 265 268 271 274 276 277 280 283 287 290 292 292 284 267 249 238 235 231 223 215 213 211 206 202 201 201 203 205 206 206 202 196 196 199 202 205 206 205 205 207 210 217 224 225 221 220 226 231 235 237 235 234 235 236 236 238 240 243 248 253 256 259 260
238 239 240 241 241 243 244 244 245 248 250 250 251 252 253 254 255 255 255 254 255 259 262 266 268 271 272 273 275 278 281 285 289 292 291 282 262 244 235 233 230 223 215 214 215 213 209 207 207 208 207 207 208 203 199 203 207 208 209 207 206 207 209 213 218 224 224 222 224 230 234 240 242 238 236 238 239 240 242 243 244 246 250 255 258 260
238 239 239 239 240 241 242 243 244 246 250 251 251 252 252 253 253 252 251 252 255 258 261 264 267 270 272 273 275 277 281 285 289 290 288 277 257 241 233 230 228 222 216 215 218 219 216 213 212 211 206 204 206 202 202 210 214 212 211 209 207 208 212 216 219 222 223 223 228 235 242 246 246 242 240 243 244 246 247 247 246 246 249 254 259 261
238 239 239 239 240 241 241 242 243 245 248 250 250 250 250 250 250 250 250 252 255 257 260 264 268 270 272 273 274 277 281 285 287 288 284 269 252 239 231 228 226 220 216 216 219 221 220 217 215 212 206 203 203 201 204 212 216 216 214 212 210 212 214 216 219 223 225 226 231 240 246 250 251 248 247 248 250 252 252 251 249 248 252 257 262 265
237 238 238 239 240 241 242 243 244 245 246 248 249 249 248 248 249 249 251 252 255 258 262 265 268 270 271 272 275 277 280 284 286 285 279 261 245 237 230 227 224 220 216 217 219 220 221 220 217 212 208 204 202 201 206 212 215 216 218 216 215 216 216 216 220 224 227 229 230 236 243 247 249 251 253 253 252 253 253 254 253 252 255 258 261 266
239 239 239 240 241 242 243 244 245 246 246 247 248 249 249 249 250 251 252 254 258 261 264 266 268 269 270 272 275 277 280 284 285 284 276 254 239 235 231 226 224 221 217 217 219 219 220 220 217 213 209 206 203 203 208 212 213 214 219 220 220 218 217 219 224 227 230 231 227 227 231 235 236 242 249 252 252 253 254 254 254 256 257 259 261 264
240 241 241 241 242 244 245 246 246 247 247 247 248 249 250 251 251 253 255 257 260 262 264 266 266 267 269 271 273 276 281 285 284 283 275 249 234 233 231 227 225 222 219 218 219 219 220 220 218 214 211 208 206 207 210 213 213 214 218 221 221 219 219 223 227 229 231 230 225 223 225 227 229 235 242 245 249 255 256 254 255 256 257 259 261 263
241 241 241 241 242 244 246 247 247 248 249 249 249 250 251 252 253 254 256 259 261 262 263 263 263 264 267 269 272 277 281 284 283 282 273 248 233 231 231 229 228 225 222 220 221 221 220 219 219 216 212 210 209 210 213 215 216 217 218 220 221 221 222 223 224 224 224 224 223 223 223 226 229 233 238 242 243 246 252 254 253 254 256 258 258 260
242 242 241 241 242 244 245 246 247 247 248 249 250 250 251 252 253 255 256 258 259 259 259 259 260 263 266 270 274 278 281 281 281 281 273 252 235 232 232 233 232 229 226 225 224 223 221 220 219 216 214 213 212 213 215 217 218 219 220 221 222 223 225 225 223 221 218 215 218 222 223 226 229 232 237 242 242 243 249 256 256 253 254 255 256 257
243 243 242 241 242 243 245 246 246 246 246 247 248 250 250 251 252 253 254 255 255 255 255 257 259 263 267 271 275 278 279 278 280 282 274 256 240 234 233 234 235 232 230 230 228 225 224 223 221 218 216 215 215 216 218 218 219 220 221 223 225 226 226 226 224 221 218 214 216 222 226 228 231 233 236 237 238 240 248 256 259 257 255 254 255 256
243 242 242 241 242 243 244 245 246 246 245 245 247 248 249 249 250 251 251 252 253 254 255 258 261 265 268 271 275 276 277 276 279 282 276 258 245 238 235 234 235 235 234 234 232 228 226 226 224 221 219 218 218 218 220 220 221 221 222 223 226 228 228 228 226 223 221 220 221 223 226 230 231 231 233 234 234 238 244 249 254 258 259 257 256 257
242 243 242 242 242 242 243 244 246 246 246 246 246 247 248 249 249 249 250 251 252 254 257 260 263 266 269 271 272 272 272 273 275 278 275 260 247 242 238 235 235 237 236 235 234 231 228 227 225 224 223 223 222 221 222 223 223 224 225 225 225 227 229 230 230 227 224 225 228 227 227 231 235 234 235 236 237 241 247 251 255 260 262 261 260 259
243 244 244 243 242 243 244 244 245 247 248 248 248 248 249 249 250 250 251 252 254 256 259 261 263 265 266 266 266 266 268 269 271 273 273 263 248 242 240 236 234 236 237 236 234 233 231 228 226 226 227 227 227 225 225 226 226 227 228 228 227 227 228 230 232 230 227 227 231 232 230 232 237 239 241 241 242 244 249 255 258 260 262 262 262 261
243 243 244 244 243 244 245 246 247 248 249 251 251 250 250 251 252 252 253 254 256 257 259 261 262 263 263 261 261 262 263 264 267 270 271 265 252 241 238 236 235 236 237 237 235 234 233 231 228 228 229 231 231 230 229 230 231 230 231 232 231 229 227 228 230 230 228 228 231 235 236 236 237 239 242 244 245 246 247 252 257 258 259 260 259 258
242 242 243 243 243 244 244 246 247 248 249 250 251 251 251 251 252 253 254 255 256 257 258 259 259 259 259 258 257 258 258 259 263 266 268 267 258 246 238 237 237 237 236 237 237 236 235 234 232 230 230 232 233 234 233 233 234 234 234 234 234 232 229 228 227 228 228 228 230 234 239 240 239 239 239 241 244 244 245 249 254 256 256 257 257 257
241 241 242 243 243 243 244 245 246 247 248 248 249 249 249 249 250 251 252 253 254 255 255 255 254 254 255 256 255 254 255 258 262 265 268 269 264 254 245 239 237 236 236 238 239 238 238 237 236 235 234 233 234 235 235 235 236 236 236 236 235 234 233 230 228 227 228 228 230 233 237 240 241 241 240 240 242 243 244 246 250 252 253 254 255 255
242 241 242 242 243 243 244 244 244 245 246 246 247 247 246 246 246 247 248 248 249 250 251 251 250 251 252 253 255 255 256 259 261 263 267 270 267 260 252 243 237 235 235 237 239 240 241 241 239 238 237 237 236 236 237 236 237 237 238 237 236 235 235 233 230 229 228 229 230 233 235 237 239 241 241 241 241 242 243 245 247 248 250 252 253 254
244 243 243 242 242 242 243 243 243 243 244 246 246 245 244 243 243 244 244 244 244 246 247 247 248 249 250 251 254 256 257 258 258 260 264 268 265 260 255 247 239 236 234 236 239 241 242 243 242 241 240 238 238 238 238 237 237 237 238 238 237 235 235 235 233 231 230 230 231 233 234 236 237 239 240 240 241 241 242 243 244 246 247 250 252 254
245 245 244 243 243 242 241 241 241 242 243 245 245 244 243 243 243 243 242 241 242 243 245 245 246 247 249 251 253 256 258 258 257 258 261 264 263 257 254 249 244 241 239 239 241 243 244 244 245 245 243 241 239 240 240 239 238 238 238 239 238 237 236 236 235 233 232 232 232 233 234 235 237 238 239 240 240 240 240 241 241 243 245 248 251 254
243 244 244 244 243 243 242 241 241 242 243 244 245 245 244 243 243 242 242 242 243 243 243 243 244 246 249 251 254 256 258 257 257 257 259 263 263 258 254 251 249 248 247 247 246 247 248 249 249 250 249 246 243 241 241 241 241 240 240 240 240 239 237 236 236 236 234 234 234 234 235 236 237 238 240 240 240 240 240 241 242 243 245 248 251 253
242 242 242 242 242 242 242 241 241 242 243 243 244 244 244 243 243 243 243 243 243 243 242 243 245 247 249 252 254 256 258 257 257 257 258 261 263 261 256 253 251 250 251 251 251 251 252 253 254 254 252 250 248 246 244 244 243 243 242 242 242 241 240 239 238 238 237 236 235 235 235 236 237 239 240 241 241 240 239 241 243 245 247 248 250 252
242 241 240 240 240 240 241 240 240 240 242 243 243 243 244 244 244 245 245 244 243 243 244 245 246 248 250 252 254 256 257 257 258 258 259 260 262 262 259 255 253 251 251 252 253 254 255 256 256 255 253 253 253 252 249 248 247 246 244 243 243 243 243 242 241 240 240 238 237 236 236 236 237 239 240 241 241 241 240 240 242 245 247 249 251 252
241 240 239 239 239 239 239 239 238 238 239 241 242 243 243 244 245 245 244 244 245 245 246 247 249 250 252 253 254 255 255 256 257 258 259 260 262 262 259 257 255 254 253 253 254 255 256 257 257 256 254 255 256 255 253 251 251 250 248 246 245 244 244 244 243 243 243 242 240 239 238 238 238 239 240 242 243 242 242 241 242 244 247 249 251 253
240 240 239 239 239 240 239 239 238 238 237 238 240 241 243 244 245 245 246 246 246 247 248 249 251 252 253 253 253 254 255 255 256 257 259 260 261 261 260 258 257 256 255 255 255 255 257 258 258 256 255 255 257 257 255 253 251 251 251 250 249 246 245 244 244 244 244 244 244 242 241 240 241 241 241 242 243 244 244 244 244 244 246 247 250 252
240 240 240 239 240 241 242 240 240 239 239 238 239 240 242 244 245 247 248 248 249 249 249 250 251 252 253 254 254 254 255 255 255 257 258 258 259 260 259 258 258 257 256 255 255 255 256 257 257 257 257 257 258 258 257 254 251 250 250 251 251 250 247 246 245 245 245 244 245 244 243 242 242 242 243 243 244 245 246 246 246 246 246 247 248 250
240 240 240 239 240 242 244 243 241 240 240 240 239 240 241 243 245 246 247 249 249 250 250 250 251 252 253 254 255 255 256 256 257 257 258 258 259 259 260 259 258 257 256 255 255 254 255 255 257 258 260 261 261 260 259 257 253 250 248 249 251 251 250 248 247 247 246 245 245 245 245 244 243 243 244 244 245 246 247 248 248 248 248 249 249 250
240 240 240 240 240 242 244 245 243 241 240 240 240 239 240 241 243 245 246 247 248 248 248 248 250 251 252 253 255 256 257 258 258 259 259 259 259 259 260 259 258 255 254 254 255 254 254 255 257 259 261 262 262 261 260 259 256 252 249 248 248 250 250 249 248 247 247 247 247 247 246 245 245 244 244 245 245 246 247 248 249 250 251 251 251 252
240 240 240 240 240 241 242 244 244 242 240 239 238 238 239 240 241 243 245 245 246 247 247 247 248 250 251 253 254 255 256 257 258 258 259 259 260 259 259 258 255 252 251 251 253 254 255 256 258 259 261 262 262 261 260 259 258 255 252 249 248 248 248 248 248 248 247 248 249 249 249 248 247 247 246 246 246 247 247 248 250 251 252 253 253 254
237 238 239 239 239 240 241 242 243 243 241 239 237 237 237 238 239 241 243 245 246 247 247 247 248 248 249 251 252 253 254 255 256 257 258 259 260 259 257 255 252 249 249 250 251 253 254 256 257 258 259 260 261 261 260 260 259 258 256 252 249 247 247 247 247 248 247 247 248 249 250 250 250 250 249 249 249 249 249 250 250 251 252 253 254 255
Height
10644 10649 10652 10651 10650 10650 10653 10653 10652 10652 10659 10665 10665 10665 10665 10666 10667 10669 10671 10671 10675 10678 10676 10674 10672 10673 10676 10679 10681 10684 10685 10687 10687 10686 10686 10686 10686 10687 10688 10688 10689 10690 10691 10693 10694 10695 10696 10698 10700 10702 10703 10706 10709 10712 10713 10715 10716 10715 10716 10718 10720 10720 10720 10719 10718 10718 10719 10720 10719 10721 10725 10728 10729 10730 10732 10733 10735 10736 10736 10737 10738 10739 10740 10741 10742 10743
10640 10643 10642 10641 10641 10644 10647 10647 10647 10650 10656 10659 10659 10658 10658 10659 10663 10665 10665 10667 10670 10671 10671 10671 10670 10669 10670 10671 10675 10679 10682 10682 10682 10682 10682 10682 10682 10683 10684 10684 10685 10685 10685 10686 10686 10688 10689 10691 10694 10696 10697 10700 10703 10705 10706 10708 10709 10709 10710 10713 10714 10715 10714 10714 10713 10713 10714 10715 10715 10717 10721 10723 10725 10726 10728 10730 10731 10732 10732 10733 10734 10736 10737 10738 10739 10740
10634 10633 10630 10632 10636 10640 10643 10642 10643 10647 10651 10652 10652 10651 10651 10654 10658 10660 10662 10664 10665 10666 10667 10669 10668 10666 10662 10663 10667 10671 10676 10677 10677 10678 10678 10678 10678 10678 10679 10680 10679 10679 10679 10679 10680 10682 10682 10684 10687 10690 10691 10694 10697 10698 10698 10701 10702 10702 10704 10706 10708 10709 10709 10709 10708 10709 10710 10711 10712 10715 10717 10719 10721 10723 10725 10726 10727 10728 10729 10730 10731 10733 10734 10736 10736 10737
10624 10621 10622 10628 10632 10636 10638 10636 10637 10643 10645 10645 10645 10644 10644 10649 10653 10656 10658 10659 10661 10663 10665 10666 10664 10661 10657 10656 10658 10661 10668 10672 10673 10674 10675 10674 10673 10673 10673 10674 10673 10672 10672 10673 10675 10677 10677 10678 10681 10683 10684 10687 10690 10690 10690 10693 10695 10695 10696 10699 10702 10704 10705 10704 10705 10706 10707 10707 10709 10712 10714 10715 10717 10720 10721 10722 10723 10725 10727 10728 10729 10732 10733 10733 10733 10733
10613 10614 10619 10625 10629 10631 10631 10630 10632 10637 10638 10638 10638 10635 10638 10644 10648 10650 10652 10654 10656 10658 10659 10659 10659 10658 10653 10650 10650 10653 10658 10664 10668 10670 10670 10670 10669 10667 10667 10668 10667 10666 10666 10668 10670 10670 10671 10672 10673 10675 10675 10678 10682 10682 10681 10685 10687 10688 10690 10693 10697 10699 10701 10701 10702 10705 10705 10705 10707 10709 10711 10712 10713 10716 10717 10718 10719 10721 10723 10725 10728 10731 10732 10730 10730 10730
10605 10612 10617 10620 10623 10624 10625 10625 10627 10630 10631 10632 10631 10629 10631 10637 10641 10645 10647 10648 10650 10652 10654 10654 10656 10656 10650 10644 10645 10648 10650 10655 10662 10666 10666 10664 10662 10660 10660 10662 10662 10661 10661 10663 10663 10661 10663 10665 10664 10665 10666 10668 10672 10673 10673 10676 10679 10682 10684 10688 10692 10695 10697 10699 10701 10703 10704 10704 10705 10707 10709 10709 10709 10711 10712 10714 10716 10717 10719 10722 10725 10729 10729 10728 10727 10727
10602 10609 10612 10614 10617 10618 10619 10618 10620 10624 10626 10626 10625 10622 10624 10631 10636 10639 10641 10643 10645 10648 10649 10649 10651 10653 10646 10640 10641 10643 10645 10649 10655 10658 10658 10657 10655 10653 10653 10655 10656 10656 10655 10656 10654 10652 10654 10656 10657 10657 10657 10659 10663 10665 10666 10668 10672 10676 10680 10684 10688 10692 10695 10698 10700 10703 10704 10704 10704 10705 10706 10706 10706 10707 10708 10710 10712 10714 10715 10718 10722 10726 10726 10726 10725 10726
10598 10604 10606 10609 10611 10612 10613 10612 10614 10618 10620 10621 10619 10615 10620 10627 10630 10632 10636 10640 10641 10642 10644 10644 10646 10646 10640 10636 10638 10641 10643 10644 10647 10648 10648 10649 10649 10646 10646 10648 10649 10650 10649 10646 10644 10644 10646 10650 10652 10652 10652 10653 10656 10659 10661 10664 10669 10673 10676 10680 10685 10690 10694 10697 10700 10703 10704 10704 10703 10702 10703 10701 10701 10703 10704 10705 10708 10710 10712 10716 10719 10722 10723 10724 10725 10724
10593 10598 10600 10603 10606 10607 10607 10606 10608 10612 10614 10616 10611 10610 10617 10622 10623 10628 10634 10636 10635 10635 10638 10639 10639 10637 10633 10633 10636 10639 10641 10641 10639 10638 10638 10640 10641 10640 10640 10640 10641 10643 10642 10637 10636 10637 10640 10644 10647 10648 10648 10648 10650 10655 10658 10662 10666 10670 10673 10678 10683 10689 10693 10697 10700 10702 10703 10702 10700 10698 10697 10694 10694 10698 10700 10700 10702 10705 10709 10714 10716 10717 10719 10721 10723 10721
10589 10593 10595 10599 10601 10602 10601 10601 10604 10606 10608 10608 10605 10607 10614 10618 10620 10624 10627 10627 10627 10630 10634 10632 10630 10629 10630 10631 10633 10634 10636 10637 10633 10630 10629 10630 10631 10632 10632 10632 10633 10634 10633 10631 10629 10629 10631 10634 10637 10638 10638 10639 10642 10647 10652 10656 10660 10665 10669 10674 10681 10688 10693 10697 10700 10700 10700 10699 10694 10691 10690 10688 10689 10693 10694 10693 10695 10699 10704 10709 10712 10712 10711 10715 10719 10717
10584 10587 10590 10594 10596 10596 10596 10597 10599 10600 10602 10602 10602 10606 10610 10613 10615 10616 10618 10620 10622 10625 10626 10623 10623 10624 10627 10630 10629 10628 10629 10630 10628 10625 10624 10623 10624 10625 10625 10624 10624 10624 10623 10622 10619 10618 10620 10623 10625 10627 10628 10631 10634 10638 10642 10645 10650 10656 10664 10673 10682 10689 10694 10697 10698 10698 10697 10692 10686 10684 10685 10686 10686 10687 10688 10688 10689 10691 10696 10701 10705 10706 10705 10707 10712 10711
10579 10583 10586 10589 10590 10590 10592 10593 10593 10594 10595 10596 10599 10602 10604 10607 10608 10610 10612 10613 10616 10618 10616 10615 10618 10621 10624 10626 10625 10622 10622 10623 10621 10619 10618 10619 10619 10619 10619 10618 10616 10614 10613 10612 10609 10609 10612 10615 10618 10622 10624 10627 10631 10634 10637 10639 10642 10647 10655 10666 10679 10688 10692 10693 10694 10696 10693 10685 10680 10680 10682 10684 10683 10683 10683 10683 10683 10685 10687 10691 10695 10697 10698 10701 10703 10703
10574 10578 10580 10582 10584 10586 10587 10587 10587 10589 10590 10591 10594 10598 10599 10601 10603 10605 10606 10606 10609 10610 10607 10609 10613 10617 10620 10621 10620 10617 10616 10616 10615 10613 10612 10612 10613 10613 10613 10611 10608 10606 10605 10603 10601 10602 10606 10609 10613 10617 10620 10624 10628 10633 10636 10638 10642 10646 10650 10656 10666 10674 10679 10683 10688 10690 10683 10674 10674 10676 10679 10680 10680 10679 10679 10678 10679 10680 10681 10684 10686 10688 10691 10694 10695 10696
10568 10572 10575 10578 10579 10581 10582 10582 10582 10583 10584 10585 10588 10592 10594 10596 10599 10600 10599 10600 10602 10602 10602 10604 10608 10611 10614 10617 10618 10614 10610 10610 10609 10608 10606 10605 10606 10606 10605 10604 10602 10599 10597 10596 10596 10597 10600 10603 10607 10611 10615 10619 10624 10629 10633 10636 10641 10647 10652 10654 10656 10659 10667 10676 10681 10678 10671 10667 10671 10674 10675 10676 10675 10675 10676 10676 10676 10677 10677 10678 10680 10681 10683 10686 10688 10688
10564 10567 10571 10573 10574 10577 10576 10575 10574 10576 10579 10581 10583 10586 10589 10592 10595 10594 10592 10593 10595 10597 10599 10600 10602 10606 10608 10613 10615 10610 10604 10603 10603 10601 10600 10599 10599 10599 10598 10597 10595 10592 10590 10590 10591 10593 10596 10598 10602 10606 10610 10614 10619 10624 10628 10632 10636 10642 10650 10654 10655 10658 10665 10671 10671 10668 10664 10664 10667 10669 10671 10671 10671 10671 10672 10673 10673 10673 10674 10674 10674 10675 10676 10678 10680 10681
10559 10562 10565 10566 10569 10571 10569 10567 10569 10572 10576 10577 10579 10582 10585 10587 10588 10587 10586 10588 10591 10594 10595 10595 10597 10600 10603 10607 10609 10604 10600 10599 10597 10595 10594 10593 10592 10591 10591 10590 10589 10587 10586 10585 10587 10589 10591 10594 10598 10601 10605 10609 10614 10619 10623 10627 10631 10637 10643 10649 10653 10657 10660 10663 10661 10657 10656 10657 10659 10663 10665 10665 10667 10668 10668 10669 10668 10668 10669 10668 10669 10669 10670 10671 10673 10674
10553 10556 10558 10560 10563 10564 10563 10563 10566 10569 10571 10573 10574 10576 10578 10579 10581 10582 10583 10584 10587 10589 10590 10591 10592 10595 10598 10601 10600 10597 10595 10594 10592 10591 10590 10588 10586 10585 10584 10584 10583 10583 10582 10582 10584 10586 10587 10590 10593 10597 10601 10604 10609 10614 10618 10622 10626 10631 10636 10640 10643 10645 10647 10649 10648 10645 10647 10651 10653 10656 10659 10659 10661 10663 10663 10663 10663 10663 10662 10662 10663 10664 10664 10665 10666 10667
10548 10550 10553 10555 10557 10560 10559 10559 10562 10564 10566 10568 10568 10569 10571 10574 10577 10579 10579 10581 10583 10584 10585 10586 10587 10590 10594 10594 10593 10590 10589 10589 10589 10587 10585 10583 10581 10580 10579 10578 10577 10577 10578 10580 10582 10583 10585 10587 10590 10594 10598 10601 10605 10610 10613 10617 10621 10624 10628 10631 10631 10630 10631 10634 10636 10638 10642 10646 10647 10650 10652 10653 10655 10656 10658 10658 10657 10657 10657 10657 10658 10658 10659 10660 10661 10662
10543 10546 10549 10551 10553 10555 10554 10555 10558 10560 10561 10563 10562 10563 10567 10571 10573 10574 10575 10577 10579 10580 10582 10583 10584 10586 10589 10589 10587 10585 10585 10585 10584 10582 10580 10578 10576 10575 10575 10574 10573 10573 10575 10576 10579 10581 10583 10585 10588 10592 10596 10599 10603 10606 10610 10613 10617 10619 10621 10623 10624 10624 10626 10629 10631 10633 10635 10637 10640 10642 10645 10647 10649 10651 10653 10654 10653 10654 10655 10654 10653 10653 10654 10655 10655 10657
10538 10542 10545 10547 10548 10550 10551 10552 10554 10555 10556 10557 10557 10560 10564 10566 10568 10570 10571 10573 10575 10577 10579 10580 10581 10582 10583 10583 10582 10581 10581 10580 10579 10577 10575 10573 10571 10571 10571 10570 10569 10570 10571 10573 10575 10578 10581 10584 10587 10590 10594 10597 10600 10603 10607 10610 10613 10614 10615 10616 10617 10621 10624 10625 10626 10627 10627 10629 10632 10636 10638 10641 10644 10647 10649 10650 10650 10652 10654 10653 10650 10648 10649 10650 10651 10652
10534 10537 10540 10542 10543 10546 10547 10547 10548 10549 10550 10552 10554 10556 10559 10562 10564 10566 10568 10569 10572 10574 10575 10576 10577 10578 10578 10578 10577 10576 10576 10575 10573 10572 10571 10569 10568 10567 10566 10566 10566 10566 10567 10569 10572 10576 10579 10582 10585 10588 10591 10595 10598 10601 10604 10606 10608 10610 10611 10611 10612 10614 10617 10618 10619 10619 10620 10623 10628 10631 10634 10636 10639 10643 10645 10647 10648 10649 10650 10651 10647 10644 10645 10647 10648 10649
10531 10533 10535 10536 10538 10541 10542 10540 10540 10542 10545 10547 10549 10553 10556 10559 10561 10563 10565 10566 10567 10569 10570 10571 10572 10573 10573 10573 10572 10572 10571 10570 10569 10568 10567 10566 10564 10563 10563 10564 10563 10563 10564 10567 10570 10573 10576 10579 10583 10586 10589 10592 10595 10598 10601 10603 10605 10606 10607 10608 10608 10609 10611 10612 10613 10613 10615 10620 10625 10628 10630 10633 10635 10639 10641 10642 10644 10646 10647 10647 10645 10642 10642 10644 10644 10645
10526 10526 10528 10531 10533 10534 10535 10535 10535 10536 10539 10543 10547 10552 10555 10557 10559 10561 10561 10561 10562 10564 10565 10566 10567 10568 10568 10568 10567 10567 10567 10566 10564 10563 10563 10562 10560 10560 10561 10561 10561 10561 10562 10565 10567 10570 10573 10576 10580 10584 10587 10590 10593 10595 10598 10600 10601 10602 10603 10603 10605 10606 10608 10609 10611 10611 10614 10618 10622 10624 10627 10630 10632 10635 10637 10639 10640 10642 10643 10643 10642 10640 10639 10640 10641 10642
10519 10520 10523 10525 10526 10527 10529 10530 10531 10531 10534 10540 10546 10550 10552 10554 10556 10556 10556 10556 10558 10560 10561 10561 10561 10562 10563 10563 10563 10562 10562 10561 10560 10559 10558 10557 10556 10556 10557 10558 10558 10559 10560 10563 10564 10567 10570 10573 10577 10581 10584 10586 10588 10592 10595 10597 10597 10598 10599 10600 10601 10603 10605 10607 10608 10610 10612 10617 10621 10623 10625 10627 10630 10632 10634 10635 10636 10637 10638 10639 10638 10637 10636 10636 10637 10638
10513 10516 10518 10519 10520 10522 10523 10524 10526 10528 10531 10536 10542 10545 10547 10549 10550 10550 10550 10551 10554 10556 10556 10555 10556 10557 10557 10557 10557 10557 10557 10557 10556 10555 10554 10553 10552 10552 10554 10555 10555 10556 10558 10559 10561 10564 10567 10570 10573 10576 10578 10580 10583 10588 10591 10592 10592 10593 10595 10597 10599 10600 10601 10603 10606 10609 10613 10618 10622 10624 10625 10627 10629 10630 10631 10631 10631 10632 10633 10633 10632 10632 10631 10632 10633 10633
10507 10511 10512 10513 10514 10515 10516 10517 10521 10525 10527 10531 10536 10539 10541 10543 10543 10544 10545 10546 10548 10550 10551 10551 10551 10550 10551 10551 10551 10551 10552 10552 10552 10551 10550 10548 10548 10548 10550 10551 10552 10553 10555 10556 10558 10561 10564 10567 10569 10571 10573 10575 10579 10583 10585 10586 10588 10590 10592 10594 10596 10597 10598 10601 10605 10609 10614 10621 10625 10626 10626 10627 10628 10628 10627 10628 10628 10627 10628 10628 10626 10626 10626 10626 10628 10628
10501 10504 10506 10507 10508 10507 10509 10512 10516 10520 10523 10525 10528 10531 10534 10535 10536 10538 10539 10540 10542 10544 10546 10546 10545 10544 10544 10544 10545 10546 10547 10547 10547 10546 10545 10543 10543 10544 10546 10548 10549 10550 10552 10554 10556 10558 10560 10562 10564 10567 10570 10572 10575 10578 10580 10582 10585 10587 10588 10590 10591 10593 10595 10599 10604 10608 10614 10620 10625 10625 10625 10626 10627 10624 10622 10623 10624 10623 10622 10622 10621 10622 10621 10621 10623 10623
10494 10498 10501 10502 10501 10501 10503 10506 10510 10514 10517 10520 10522 10524 10527 10528 10530 10532 10533 10534 10536 10538 10540 10541 10539 10538 10538 10538 10539 10540 10542 10542 10542 10541 10540 10539 10539 10540 10542 10544 10546 10548 10549 10551 10553 10555 10557 10558 10560 10563 10565 10567 10570 10573 10575 10577 10580 10582 10583 10585 10587 10589 10592 10596 10601 10606 10610 10614 10617 10619 10620 10620 10620 10618 10617 10619 10619 10617 10615 10615 10615 10616 10615 10616 10618 10619
10487 10492 10494 10495 10495 10495 10497 10500 10504 10507 10511 10514 10516 10517 10519 10522 10524 10526 10527 10528 10530 10532 10534 10535 10534 10532 10532 10532 10533 10534 10537 10538 10537 10536 10535 10535 10535 10537 10538 10540 10542 10544 10546 10548 10549 10551 10552 10553 10555 10558 10560 10563 10565 10568 10570 10572 10575 10577 10579 10581 10584 10586 10589 10593 10598 10602 10605 10607 10610 10612 10612 10612 10612 10612 10613 10614 10614 10611 10608 10607 10609 10610 10610 10611 10612 10613
10480 10484 10487 10488 10489 10489 10490 10494 10498 10501 10504 10507 10509 10510 10512 10515 10517 10520 10521 10522 10524 10526 10528 10528 10528 10527 10527 10526 10527 10530 10532 10533 10533 10532 10531 10531 10532 10533 10535 10537 10538 10540 10543 10545 10546 10547 10548 10549 10551 10554 10556 10558 10560 10563 10565 10567 10570 10572 10575 10578 10581 10583 10586 10591 10596 10599 10602 10604 10606 10606 10606 10606 10606 10608 10609 10608 10608 10606 10601 10601 10603 10604 10604 10605 10607 10608
10473 10476 10479 10482 10483 10483 10484 10487 10491 10494 10496 10499 10500 10502 10505 10508 10511 10514 10515 10516 10518 10520 10521 10521 10522 10522 10522 10520 10521 10525 10528 10528 10528 10528 10527 10527 10528 10530 10531 10532 10534 10536 10538 10540 10542 10544 10545 10545 10547 10549 10552 10554 10556 10558 10560 10563 10565 10568 10570 10573 10576 10579 10583 10587 10592 10596 10599 10601 10601 10601 10601 10600 10601 10603 10604 10603 10603 10600 10596 10595 10597 10598 10599 10600 10601 10603
10464 10468 10472 10475 10477 10478 10478 10480 10483 10486 10489 10491 10492 10495 10497 10501 10504 10506 10508 10509 10511 10513 10514 10515 10516 10517 10517 10516 10517 10521 10523 10524 10524 10524 10524 10524 10525 10526 10527 10528 10529 10531 10534 10536 10538 10540 10540 10541 10542 10545 10547 10549 10551 10553 10555 10557 10560 10563 10566 10569 10572 10575 10578 10582 10587 10592 10595 10596 10596 10595 10595 10595 10596 10598 10598 10597 10596 10595 10592 10591 10591 10592 10593 10594 10595 10596
10454 10458 10463 10467 10470 10472 10472 10474 10475 10477 10480 10483 10486 10488 10491 10494 10497 10499 10501 10503 10505 10506 10507 10509 10511 10511 10512 10512 10513 10515 10518 10519 10519 10519 10520 10520 10521 10522 10523 10524 10525 10526 10528 10530 10533 10534 10536 10536 10538 10540 10543 10544 10545 10547 10549 10551 10554 10557 10560 10564 10567 10570 10573 10577 10582 10586 10589 10590 10590 10590 10590 10590 10591 10591 10590 10590 10590 10588 10587 10586 10585 10585 10586 10588 10590 10590
10446 10450 10454 10459 10463 10464 10465 10466 10466 10467 10471 10476 10479 10482 10485 10487 10490 10493 10495 10497 10499 10500 10501 10503 10505 10505 10506 10508 10509 10510 10512 10514 10514 10515 10515 10516 10517 10518 10519 10520 10521 10522 10523 10525 10527 10529 10530 10532 10534 10536 10538 10539 10540 10542 10543 10545 10548 10551 10554 10558 10561 10564 10567 10571 10575 10580 10583 10584 10584 10586 10586 10586 10585 10585 10585 10585 10585 10585 10583 10582 10581 10581 10580 10582 10584 10584
10440 10443 10447 10451 10454 10456 10457 10458 10459 10460 10463 10468 10472 10475 10478 10480 10483 10486 10488 10490 10492 10494 10495 10497 10498 10499 10502 10503 10505 10506 10507 10508 10509 10510 10510 10511 10512 10513 10515 10517 10517 10517 10518 10520 10521 10523 10525 10527 10530 10532 10533 10534 10535 10537 10539 10540 10542 10545 10548 10551 10555 10559 10562 10565 10568 10572 10576 10577 10579 10580 10581 10581 10581 10580 10580 10581 10581 10582 10580 10578 10577 10576 10575 10576 10577 10578
10433 10436 10439 10441 10445 10447 10448 10449 10451 10453 10456 10459 10463 10468 10472 10474 10476 10478 10480 10483 10485 10486 10488 10490 10491 10493 10496 10498 10500 10501 10502 10503 10504 10505 10505 10506 10507 10509 10511 10512 10513 10513 10514 10515 10516 10518 10520 10522 10525 10527 10528 10528 10530 10532 10534 10536 10537 10540 10542 10545 10548 10552 10556 10559 10562 10565 10569 10571 10573 10573 10573 10576 10577 10576 10576 10576 10578 10578 10577 10574 10573 10571 10569 10570 10570 10571
10426 10429 10431 10433 10436 10438 10440 10441 10443 10446 10449 10452 10455 10460 10464 10466 10468 10470 10472 10475 10477 10479 10481 10484 10485 10487 10490 10492 10494 10496 10496 10498 10499 10500 10500 10501 10503 10505 10506 10508 10509 10509 10510 10511 10512 10514 10516 10517 10519 10521 10522 10523 10524 10526 10528 10530 10532 10534 10536 10539 10542 10546 10549 10553 10555 10558 10562 10564 10566 10567 10567 10569 10572 10572 10572 10572 10573 10574 10572 10571 10571 10568 10565 10563 10564 10564
10419 10422 10424 10426 10428 10431 10432 10434 10436 10439 10442 10445 10447 10451 10455 10458 10460 10462 10465 10468 10471 10472 10474 10477 10480 10481 10483 10486 10488 10490 10491 10492 10493 10494 10495 10496 10498 10501 10502 10503 10505 10506 10506 10507 10508 10509 10510 10512 10514 10515 10516 10517 10519 10521 10523 10525 10527 10529 10531 10533 10536 10540 10543 10546 10549 10552 10555 10557 10560 10561 10563 10564 10565 10566 10567 10568 10568 10568 10567 10566 10566 10564 10560 10558 10557 10556
10412 10415 10417 10419 10422 10424 10426 10427 10430 10433 10434 10436 10440 10445 10449 10452 10454 10455 10458 10463 10465 10466 10467 10470 10473 10475 10477 10480 10482 10484 10486 10487 10488 10489 10490 10492 10494 10496 10498 10499 10500 10502 10503 10503 10503 10504 10505 10506 10507 10509 10510 10511 10513 10515 10517 10520 10522 10523 10524 10526 10530 10533 10536 10539 10542 10545 10547 10550 10553 10555 10557 10558 10559 10559 10561 10562 10562 10562 10562 10561 10560 10558 10555 10552 10550 10550
10404 10407 10410 10413 10415 10417 10418 10421 10424 10426 10427 10430 10435 10439 10443 10446 10448 10450 10454 10458 10459 10458 10460 10464 10467 10469 10472 10474 10476 10478 10480 10482 10482 10483 10485 10488 10489 10491 10493 10494 10495 10497 10499 10499 10498 10498 10499 10499 10500 10502 10503 10505 10507 10509 10511 10513 10516 10517 10518 10520 10522 10526 10528 10531 10535 10538 10540 10543 10545 10548 10550 10552 10553 10554 10555 10555 10556 10557 10557 10556 10554 10551 10549 10545 10543 10544
10397 10399 10402 10405 10408 10409 10412 10415 10418 10420 10422 10425 10429 10433 10436 10440 10443 10446 10449 10450 10450 10451 10454 10458 10461 10464 10467 10469 10470 10472 10474 10475 10477 10478 10479 10482 10484 10485 10487 10489 10491 10492 10494 10494 10494 10494 10493 10494 10494 10495 10496 10499 10502 10504 10505 10507 10509 10511 10513 10514 10515 10519 10522 10524 10527 10530 10532 10535 10538 10540 10543 10545 10546 10548 10549 10550 10550 10551 10550 10548 10546 10544 10542 10540 10538 10539
10390 10391 10394 10397 10400 10402 10405 10409 10412 10414 10417 10420 10423 10426 10430 10434 10437 10439 10441 10443 10445 10447 10449 10452 10455 10458 10461 10463 10464 10466 10468 10469 10471 10472 10473 10476 10478 10479 10481 10483 10485 10487 10488 10489 10489 10489 10489 10489 10490 10490 10491 10493 10496 10498 10499 10501 10503 10505 10507 10508 10509 10512 10515 10518 10519 10522 10524 10527 10530 10533 10535 10537 10539 10541 10542 10544 10544 10543 10542 10541 10540 10538 10537 10536 10535 10535
10382 10385 10387 10390 10392 10395 10399 10402 10406 10408 10411 10414 10417 10420 10423 10426 10429 10431 10435 10438 10440 10441 10443 10446 10449 10452 10454 10456 10458 10459 10461 10463 10465 10467 10468 10470 10471 10472 10474 10477 10478 10480 10481 10482 10483 10484 10484 10484 10484 10485 10486 10488 10490 10491 10493 10496 10498 10499 10501 10502 10503 10505 10508 10510 10512 10514 10517 10520 10523 10525 10527 10529 10531 10533 10535 10536 10536 10536 10535 10533 10532 10531 10531 10530 10530 10529
10374 10378 10381 10383 10386 10389 10392 10396 10399 10402 10405 10408 10411 10414 10416 10419 10422 10426 10430 10432 10433 10436 10438 10441 10443 10446 10448 10451 10452 10454 10456 10457 10459 10461 10462 10464 10465 10466 10468 10469 10470 10472 10474 10476 10477 10478 10478 10478 10478 10479 10481 10484 10485 10485 10487 10490 10491 10492 10494 10495 10496 10498 10500 10502 10505 10507 10509 10511 10514 10517 10519 10520 10522 10524 10526 10527 10528 10528 10528 10526 10525 10524 10523 10523 10523 10523
10367 10370 10374 10377 10380 10382 10384 10387 10392 10397 10400 10403 10406 10408 10410 10413 10416 10420 10422 10424 10427 10430 10433 10435 10437 10440 10443 10445 10447 10449 10450 10451 10452 10454 10455 10457 10458 10459 10461 10462 10463 10464 10467 10468 10470 10471 10472 10472 10472 10473 10476 10478 10479 10479 10481 10482 10483 10485 10486 10487 10489 10491 10492 10494 10497 10499 10500 10502 10505 10508 10510 10512 10513 10515 10516 10517 10519 10520 10520 10520 10519 10518 10516 10516 10515 10515
10360 10363 10367 10372 10373 10373 10375 10380 10385 10390 10395 10398 10401 10403 10405 10407 10410 10412 10415 10417 10420 10424 10426 10429 10431 10434 10437 10439 10440 10442 10443 10445 10446 10447 10448 10449 10451 10452 10453 10454 10455 10457 10459 10460 10462 10463 10465 10466 10466 10467 10469 10471 10472 10472 10473 10474 10475 10477 10478 10479 10480 10482 10484 10486 10488 10490 10492 10494 10495 10498 10501 10503 10504 10505 10506 10508 10509 10510 10511 10512 10512 10511 10510 10509 10509 10508
10354 10357 10361 10365 10365 10365 10368 10375 10380 10384 10389 10392 10396 10398 10400 10401 10403 10405 10408 10410 10413 10417 10420 10422 10424 10427 10429 10431 10432 10434 10436 10437 10439 10440 10441 10442 10443 10445 10446 10447 10449 10450 10451 10452 10454 10456 10457 10458 10459 10459 10461 10463 10464 10465 10465 10466 10467 10469 10470 10471 10471 10472 10474 10477 10479 10481 10483 10485 10486 10487 10490 10492 10494 10495 10496 10498 10499 10500 10501 10503 10504 10504 10503 10503 10502 10501
10349 10352 10355 10358 10360 10360 10363 10368 10373 10378 10382 10385 10389 10392 10393 10395 10397 10398 10400 10403 10406 10409 10412 10415 10417 10419 10421 10423 10425 10427 10428 10430 10431 10433 10434 10435 10437 10438 10439 10441 10442 10443 10444 10445 10446 10447 10449 10450 10451 10452 10453 10455 10456 10457 10457 10457 10459 10460 10462 10464 10464 10464 10465 10468 10470 10472 10473 10475 10476 10478 10479 10481 10482 10484 10486 10488 10489 10490 10491 10492 10493 10494 10495 10495 10494 10493
10343 10346 10349 10352 10355 10356 10358 10361 10366 10371 10375 10378 10382 10384 10386 10388 10389 10390 10392 10395 10398 10401 10404 10407 10409 10411 10414 10416 10418 10419 10421 10422 10424 10425 10427 10428 10429 10430 10431 10433 10434 10435 10436 10437 10438 10439 10440 10442 10443 10444 10445 10446 10447 10448 10448 10449 10450 10451 10454 10455 10456 10457 10458 10459 10461 10462 10463 10465 10466 10467 10468 10470 10472 10474 10476 10478 10479 10480 10481 10482 10483 10483 10484 10485 10485 10485
10338 10341 10344 10347 10349 10351 10353 10356 10360 10364 10368 10372 10375 10377 10379 10381 10382 10383 10384 10386 10388 10391 10395 10399 10403 10405 10408 10410 10411 10413 10414 10415 10416 10417 10419 10420 10421 10422 10423 10424 10425 10427 10428 10429 10430 10431 10432 10434 10435 10436 10437 10437 10438 10439 10440 10441 10442 10443 10445 10447 10448 10449 10450 10451 10452 10453 10453 10455 10456 10457 10458 10460 10462 10464 10466 10468 10469 10470 10471 10472 10472 10473 10474 10475 10475 10475
10333 10335 10338 10341 10344 10346 10348 10351 10354 10357 10361 10365 10368 10370 10372 10373 10375 10376 10377 10378 10380 10383 10388 10392 10396 10399 10401 10403 10404 10406 10407 10408 10409 10410 10411 10412 10412 10413 10414 10415 10418 10419 10420 10421 10422 10424 10425 10426 10427 10428 10429 10429 10429 10430 10431 10433 10434 10436 10437 10438 10439 10440 10442 10442 10443 10443 10444 10445 10447 10448 10449 10451 10452 10454 10455 10457 10458 10459 10460 10461 10462 10463 10464 10465 10465 10465